EW1948 Weather Reports


Display with metric or nautical units.
time (UTC)temp
F
wind
direction
speed
MPH
gust
MPH
rain 1hr
in
rain 24hr
in
rain mn
in
humidity
%
barometer
mb
20260903133515 80 135 3.0 6.0 0.00 0.00 0.00 79 1016.6
20260903132535 80 180 3.0 5.0 0.00 0.00 0.00 80 1016.7
20260903131515 79 158 2.0 4.0 0.00 0.00 0.00 81 1016.5
20260903130515 78 158 2.0 4.0 0.00 0.00 0.00 82 1016.5
20260903125515 78 135 2.0 4.0 0.00 0.00 0.00 83 1016.5
20260903124515 77 158 2.0 4.0 0.00 0.00 0.00 84 1016.4
20260903123535 77 180 1.0 3.0 0.00 0.00 0.00 85 1016.5
20260903122515 76 180 1.0 3.0 0.00 0.00 0.00 86 1016.5
20260903121515 76 0.0 0.0 0.00 0.00 0.00 86 1016.3
20260903120535 76 158 1.0 3.0 0.00 0.00 0.00 86 1016.3
20260903115535 76 158 1.0 3.0 0.00 0.00 0.00 86 1016.2
20260903114515 76 0.0 2.0 0.00 0.00 0.00 86 1016.1
20260903113515 76 158 1.0 3.0 0.00 0.00 0.00 86 1016.1
20260903112515 76 158 1.0 2.0 0.00 0.00 0.00 86 1016.1
20260903111515 76 0.0 0.0 0.00 0.00 0.00 86 1016.1
20260903110515 76 158 1.0 2.0 0.00 0.00 0.00 85 1016.1
20260903105535 76 158 1.0 2.0 0.00 0.00 0.00 85 1016.0
20260903104515 76 158 1.0 2.0 0.00 0.00 0.00 85 1015.9
20260903103515 76 0.0 0.0 0.00 0.00 0.00 85 1015.8
20260903102555 77 0.0 2.0 0.00 0.00 0.00 86 1015.8
20260903101515 76 113 1.0 2.0 0.00 0.00 0.00 86 1015.8
20260903100515 76 113 1.0 2.0 0.00 0.00 0.00 86 1015.8
20260903095515 76 113 1.0 2.0 0.00 0.00 0.00 86 1015.8
20260903094515 76 0.0 0.0 0.00 0.00 0.00 86 1015.7
20260903093535 76 0.0 0.0 0.00 0.00 0.00 86 1015.7
20260903092535 76 0.0 0.0 0.00 0.00 0.00 86 1015.8
20260903091515 76 0.0 1.0 0.00 0.00 0.00 86 1015.7
20260903090515 76 0.0 0.0 0.00 0.00 0.00 86 1015.7
20260903085514 76 0.0 0.0 0.00 0.00 0.00 85 1015.7
20260903084515 76 0.0 0.0 0.00 0.00 0.00 85 1015.6
20260903083515 77 0.0 0.0 0.00 0.00 0.00 84 1015.6
20260903082515 77 0.0 0.0 0.00 0.00 0.00 84 1015.6
20260903081515 77 0.0 0.0 0.00 0.00 0.00 83 1015.5
20260903080515 77 0.0 0.0 0.00 0.00 0.00 83 1015.5
20260903075515 78 0.0 2.0 0.00 0.00 0.00 82 1015.6
20260903074514 78 113 1.0 2.0 0.00 0.00 0.00 81 1015.6
20260903073515 79 0.0 1.0 0.00 0.00 0.00 80 1015.6
20260903072514 79 113 1.0 2.0 0.00 0.00 0.00 80 1015.6
20260903071515 79 0.0 0.0 0.00 0.00 0.00 80 1015.7
20260903070515 79 113 1.0 3.0 0.00 0.00 0.00 79 1015.6
20260903065514 80 0.0 2.0 0.00 0.00 0.00 79 1015.7
20260903064555 80 0.0 1.0 0.00 0.00 0.00 78 1015.7
20260903063514 80 113 1.0 3.0 0.00 0.00 0.00 78 1015.7
20260903062534 80 0.0 0.0 0.00 0.00 0.00 77 1015.7
20260903061514 80 0.0 2.0 0.00 0.00 0.00 77 1015.6
20260903060534 80 90 1.0 5.0 0.00 0.00 0.00 77 1015.7
20260903055514 81 158 1.0 2.0 0.00 0.00 0.00 77 1015.7
20260903054514 81 0.0 2.0 0.00 0.00 0.00 76 1015.7
20260903053514 81 158 1.0 2.0 0.00 0.00 0.00 76 1015.7
20260903052534 81 158 1.0 3.0 0.00 0.00 0.00 76 1015.7
20260903051514 82 0.0 0.0 0.00 0.00 0.00 75 1015.6
20260903050535 82 135 1.0 3.0 0.00 0.00 0.00 75 1015.6
20260903045515 82 0.0 2.0 0.00 0.00 0.00 75 1015.6
20260903044515 82 135 1.0 2.0 0.00 0.00 0.00 75 1015.4
20260903043515 82 0.0 0.0 0.00 0.00 0.00 75 1015.5
20260903042515 82 0.0 2.0 0.00 0.00 0.00 75 1015.4
20260903041555 82 0.0 2.0 0.00 0.00 0.00 75 1015.5
20260903040515 82 0.0 0.0 0.00 0.00 0.00 75 1015.4
20260903035515 82 0.0 0.0 0.00 0.00 0.00 74 1015.5
20260903034515 83 0.0 0.0 0.00 0.00 0.00 73 1015.5
20260903033535 83 0.0 0.0 0.00 0.00 0.00 72 1015.5
20260903032535 83 0.0 0.0 0.00 0.00 0.00 71 1015.5
20260903031515 84 0.0 0.0 0.00 0.00 0.00 70 1015.5
20260903030514 84 0.0 0.0 0.00 0.00 0.00 69 1015.5
20260903025515 85 0.0 1.0 0.00 0.00 0.00 68 1015.4
20260903024514 85 135 1.0 2.0 0.00 0.00 0.00 68 1015.4
20260903023514 85 135 1.0 4.0 0.00 0.00 0.00 67 1015.3
20260903022515 86 158 1.0 3.0 0.00 0.00 0.00 67 1015.3
20260903021514 86 135 2.0 4.0 0.00 0.00 0.00 66 1015.2
20260903020534 86 158 2.0 3.0 0.00 0.00 0.00 65 1015.1
20260903015515 87 203 2.0 4.0 0.00 0.00 0.00 63 1015.1
20260903014534 87 135 2.0 3.0 0.00 0.00 0.00 62 1014.9
20260903013514 88 158 2.0 4.0 0.00 0.00 0.00 61 1014.7
20260903012514 88 135 2.0 4.0 0.00 0.00 0.00 60 1014.6
20260903011515 89 135 3.0 5.0 0.00 0.00 0.00 58 1014.6
20260903010514 90 135 2.0 5.0 0.00 0.00 0.00 57 1014.5
20260903005514 90 158 3.0 7.0 0.00 0.00 0.00 55 1014.4
20260903004514 90 135 1.0 4.0 0.00 0.00 0.00 55 1014.3
20260903003514 91 135 1.0 3.0 0.00 0.00 0.00 54 1014.3
20260903002514 92 135 2.0 3.0 0.00 0.00 0.00 53 1014.3
20260903001514 92 135 1.0 4.0 0.00 0.00 0.00 52 1014.3
20260903000514 93 158 2.0 4.0 0.00 0.00 0.00 50 1014.3
20260902235514 94 135 2.0 6.0 0.00 0.00 0.00 49 1014.2
20260902234534 95 180 3.0 9.0 0.00 0.00 0.00 47 1014.2
20260902233534 96 158 3.0 5.0 0.00 0.00 0.00 45 1014.2
20260902232514 96 180 3.0 7.0 0.00 0.00 0.00 44 1014.2
20260902231534 96 158 2.0 5.0 0.00 0.00 0.00 43 1014.3
20260902230534 96 135 2.0 6.0 0.00 0.00 0.00 43 1014.2
20260902225514 96 203 4.0 9.0 0.00 0.00 0.00 42 1014.2
20260902224514 97 158 2.0 5.0 0.00 0.00 0.00 40 1014.2
20260902223514 97 158 3.0 7.0 0.00 0.00 0.00 40 1014.2
20260902222514 97 158 2.0 6.0 0.00 0.00 0.00 42 1014.2
20260902221514 97 135 4.0 8.0 0.00 0.00 0.00 40 1014.2
20260902220554 98 135 3.0 9.0 0.00 0.00 0.00 40 1014.2
20260902215514 98 180 4.0 8.0 0.00 0.00 0.00 40 1014.4
20260902214514 98 158 2.0 6.0 0.00 0.00 0.00 40 1014.4
20260902213534 98 113 3.0 8.0 0.00 0.00 0.00 39 1014.6
20260902212534 99 180 3.0 7.0 0.00 0.00 0.00 39 1014.7
20260902211514 98 158 3.0 6.0 0.00 0.00 0.00 38 1014.8
20260902210514 98 113 4.0 8.0 0.00 0.00 0.00 38 1014.8
20260902205514 98 158 4.0 7.0 0.00 0.00 0.00 39 1015.0
20260902204514 98 180 2.0 5.0 0.00 0.00 0.00 42 1015.0
20260902203514 97 158 2.0 6.0 0.00 0.00 0.00 42 1015.1
20260902202514 97 203 2.0 5.0 0.00 0.00 0.00 42 1015.2
20260902201514 96 225 1.0 4.0 0.00 0.00 0.00 44 1015.3
20260902200554 96 180 1.0 3.0 0.00 0.00 0.00 45 1015.4
20260902195514 96 135 1.0 3.0 0.00 0.00 0.00 45 1015.6
20260902194514 96 113 2.0 4.0 0.00 0.00 0.00 45 1015.6
20260902193534 97 158 1.0 3.0 0.00 0.00 0.00 45 1015.8
20260902192514 97 293 1.0 5.0 0.00 0.00 0.00 45 1015.8
20260902191514 97 203 3.0 8.0 0.00 0.00 0.00 44 1016.1
20260902190514 97 293 2.0 5.0 0.00 0.00 0.00 44 1016.1
20260902185514 97 203 3.0 10.0 0.00 0.00 0.00 45 1016.3
20260902184514 97 180 4.0 10.0 0.00 0.00 0.00 45 1016.3
20260902183514 97 180 3.0 9.0 0.00 0.00 0.00 45 1016.5
20260902182514 96 180 4.0 10.0 0.00 0.00 0.00 46 1016.4
20260902181514 96 158 2.0 5.0 0.00 0.00 0.00 46 1016.6
20260902180514 96 248 1.0 7.0 0.00 0.00 0.00 46 1016.7
20260902175514 97 203 3.0 7.0 0.00 0.00 0.00 46 1016.9
20260902174514 97 180 2.0 7.0 0.00 0.00 0.00 46 1016.9
20260902173514 96 225 3.0 6.0 0.00 0.00 0.00 46 1017.1
20260902172514 96 135 3.0 7.0 0.00 0.00 0.00 47 1017.2
20260902171513 95 180 3.0 8.0 0.00 0.00 0.00 47 1017.3
20260902170514 95 225 3.0 6.0 0.00 0.00 0.00 48 1017.4
20260902165514 94 203 3.0 8.0 0.00 0.00 0.00 48 1017.5
20260902164514 94 180 4.0 8.0 0.00 0.00 0.00 48 1017.5
20260902163516 93 225 2.0 5.0 0.00 0.00 0.00 52 1017.6
20260902162516 93 248 2.0 6.0 0.00 0.00 0.00 51 1017.7
20260902161516 93 113 2.0 6.0 0.00 0.00 0.00 54 1017.9
20260902160516 92 180 3.0 7.0 0.00 0.00 0.00 53 1017.8
20260902155515 92 180 4.0 10.0 0.00 0.00 0.00 53 1018.0
20260902154515 92 180 3.0 7.0 0.00 0.00 0.00 54 1018.0
20260902153514 92 180 4.0 7.0 0.00 0.00 0.00 55 1018.0
20260902152515 91 225 3.0 6.0 0.00 0.00 0.00 56 1017.9
20260902151516 90 180 3.0 9.0 0.00 0.00 0.00 57 1017.9
20260902150516 90 158 3.0 6.0 0.00 0.00 0.00 58 1017.9
20260902145516 89 203 3.0 6.0 0.00 0.00 0.00 59 1017.9
20260902144536 88 180 3.0 5.0 0.00 0.00 0.00 61 1017.9
20260902143515 88 180 2.0 5.0 0.00 0.00 0.00 63 1017.8
20260902142515 86 158 2.0 6.0 0.00 0.00 0.00 68 1017.8
20260902141515 85 158 2.0 4.0 0.00 0.00 0.00 70 1017.8
20260902140515 85 135 2.0 3.0 0.00 0.00 0.00 71 1017.9
20260902135536 84 158 1.0 3.0 0.00 0.00 0.00 73 1018.1
20260902134516 83 135 1.0 2.0 0.00 0.00 0.00 74 1018.1